Погода в Куянове

Россия / Томская область     56°56′57″N   86°27′56″E
темп.,
°C
ветер,
м/с
пор.,
м/с
влажн.,
%
обл.,
%
осадки,
мм/ч
давл.,
гПа
погр.,
м
9 марта, вт
вт901:00−6сз81385100 0.4 1006686
04:00−10з51289100 0.0 1012576
07:00−11зюз51291100 0.0 1016572
10:00−9юз61188100 0.0 1019739
13:00−8юз61184100 0.1 1020924
16:00−7юз71182100 0.0 10201023
19:00−8юз51384100 0.0 1020810
22:00−9юз51386100 0.0 1020623
10 марта, ср
ср1001:00−10ююз51386100 0.0 1018639
04:00−11ююз5148394 0.0 1017529
07:00−12ююз5148497 0.0 1017467
10:00−10юз51382100 0.0 1016536
13:00−7юз4883100 0.0 1016628
16:00−5ююз3783100 0.0 1015622
19:00−7ю2392100 0.0 101471
22:00−8юв2394100 0.0 101281
11 марта, чт
чт1101:00−5вюв4895100 0.1 1006264
04:00−2ююв61396100 1.3 1001719
07:000ююз61397100 3.6 998925
10:00+1юз81583100 0.3 9991203
13:00−4юз91585100 0.3 10041094
16:00−4юз81484100 0.1 10091178
19:00−5юз61289100 0.2 1011969
22:00−8юз5148798 0.0 1014731
12 марта, пт
пт1201:00−10ю4119191 0.0 1014368
04:00−8ю51590100 0.1 1009737
07:00−5ююз71493100 0.6 10061028
10:00−9юз8148033 0.4 10081012
13:00−9зюз8128167 0.4 10101081
16:00−10зюз71181100 0.1 10121221
19:00−13юз51186100 0.2 1014739
22:00−16юз4119381 0.0 1016436
13 марта, сб
сб1301:00−17юз399691 0.1 1016380
04:00−20юз379891 0.0 1016139
07:00−21юз379793 0.0 1017231
10:00−18зюз4894100 0.2 1018425
13:00−15зюз5888100 0.3 1019704
16:00−13зюз6984100 0.1 1022909
19:00−15зюз51287100 0.1 1024698
22:00−17юз61488100 0.0 1026634